Hourly Data Report for September 16, 2017

All times are specified in Local Standard Time (LST). Add 1 hour to adjust for Daylight Saving Time where and when it is observed.

KUGLUKTUK A
NUNAVUT

67°49'00.000" N
115°08'38.000" W
22.60 m
2300903
71938
YCO

Download Data

Hourly Data (September 2017)
Hourly Data Report for September 16, 2017
Temp Definition
°C
Dew Point Temp Definition
°C
Rel Hum Definition
%
Wind Dir Definition
10's deg

Wind Spd Definition
km/h
Visibility Definition
km
Stn Press Definition
kPa
Hmdx Definition


Wind Chill Definition


Weather Definition


TIME
00:00 Legend Double Dagger 5.8 5.6 99 1 7 12.9 100.85     LegendNANA
01:00 Legend Double Dagger 6.1 6.0 99 12 5 6.4 100.82     Fog
02:00 Legend Double Dagger 4.4 4.3 99 16 3 6.4 100.79     Fog
03:00 Legend Double Dagger 5.7 5.6 100 24 4 0.8 100.75     Fog
04:00 Legend Double Dagger 3.3 3.3 100 15 5 0.8 100.72     Fog
05:00 Legend Double Dagger 5.9 5.9 100 33 3 8.1 100.68     Fog
06:00 Legend Double Dagger 5.6 5.6 100 1 4 16.1 100.64     LegendNANA
07:00 Legend Double Dagger 5.2 5.2 100 7 3 19.3 100.60     LegendNANA
08:00 Legend Double Dagger 7.0 6.4 96 8 7 24.1 100.53     Cloudy
09:00 Legend Double Dagger 9.2 7.1 87 13 7 24.1 100.47     LegendNANA
10:00 Legend Double Dagger 11.8 7.2 73 12 7 24.1 100.40     LegendNANA
11:00 Legend Double Dagger 13.2 6.4 63 8 11 24.1 100.31     Cloudy
12:00 Legend Double Dagger 15.2 8.4 63 5 3 24.1 100.24     LegendNANA
13:00 Legend Double Dagger 14.1 7.5 64 23 10 24.1 100.21     LegendNANA
14:00 Legend Double Dagger 12.7 7.7 71 34 4 24.1 100.16     Mostly Cloudy
15:00 Legend Double Dagger 17.1 6.9 51 21 25 24.1 100.11     LegendNANA
16:00 Legend Double Dagger 16.9 7.4 53 24 16 24.1 100.07     LegendNANA
17:00 Legend Double Dagger 15.4 7.8 60 24 9 24.1 100.01     Cloudy
18:00 Legend Double Dagger 14.7 8.0 64 20 3 24.1 99.99     LegendNANA
19:00 Legend Double Dagger 13.4 7.4 67 18 8 24.1 99.98     LegendNANA
20:00 Legend Double Dagger 11.1 7.2 77 24 20 24.1 99.97     Cloudy
21:00 Legend Double Dagger 10.2 7.2 82 29 8 24.1 99.97     LegendNANA
22:00 Legend Double Dagger 9.8 7.7 86 24 14 24.1 99.97     LegendNANA
23:00 Legend Double Dagger 9.6 8.0 90 24 21 24.1 99.98     Rain

Notes on Data Quality.

Legend

  • E = Estimated
  • M = Missing
  • NA = Not Available
  • ‡ = Partner data that is not subject to review by the National Climate Archives
Date modified: